STARLINK-4053 (53536 NORAD) Tracking and Keplerian Element Data

This shows tracking and keplerian element data for the satellite.

Feedback or suggestion? Click here.




ElementValue
Catalog53536
NameSTARLINK-4053
Epoch Orbit1438
Epoch Day324.5903935
Epoch Year2022
RAAN73.1772
Inclination53.2168
Eccentricity0.0001738
Argument of Perigee51.9008
Mean Anonmoly308.2139
Mean Motion15.07191413
Decay Rate-1.476E-05
L11 53536U 22101K 22324.59039350 -.00001476 00000+0 -78353-4 0 9994
L22 53536 53.2168 73.1772 0001738 51.9008 308.2139 15.07191413 14382



Live tracking and technical data element details for STARLINK-4053 (NORAD 53536). STARLINK-4053 can be tracked NOW for your location showing map with azimuth and elevation plus other details from your city location.







IsCatalogInMostPopularTable: catalog: 53536, numindb: 2
Update: records affected: 1



GetName: 53536 STARLINK-4053

Hit Count: updated at: Thu, 08 Dec 2022 09:35:57 GMT